Time,TemperatureF,DewpointF,PressureIn,WindDirection,WindDirectionDegrees,WindSpeedMPH,WindSpeedGustMPH,Humidity,HourlyPrecipIn,Conditions,Clouds,dailyrainin,SoftwareType,DateUTC
2013-04-03 00:00:00,39.3,19.7,30.18,ESE,103,0.0,0.0,45,0.00,,,0.00,Wunderground v.1.15,2013-04-03 05:00:00,
2013-04-03 00:10:00,39.1,20.0,30.19,ESE,103,0.0,0.0,46,0.00,,,0.00,Wunderground v.1.15,2013-04-03 05:10:00,
2013-04-03 00:20:00,39.2,20.1,30.19,ESE,103,0.0,0.0,46,0.00,,,0.00,Wunderground v.1.15,2013-04-03 05:20:00,
2013-04-03 00:30:00,39.1,20.0,30.19,ESE,103,0.0,0.0,46,0.00,,,0.00,Wunderground v.1.15,2013-04-03 05:30:00,
2013-04-03 00:35:00,38.9,19.9,30.19,ESE,103,0.0,0.0,46,0.00,,,0.00,Wunderground v.1.15,2013-04-03 05:35:00,
2013-04-03 00:45:00,37.6,19.7,30.19,East,100,0.0,0.0,48,0.00,,,0.00,Wunderground v.1.15,2013-04-03 05:45:00,
2013-04-03 00:55:00,36.5,20.1,30.20,ENE,66,0.0,0.0,51,0.00,,,0.00,Wunderground v.1.15,2013-04-03 05:55:00,
2013-04-03 01:05:00,35.8,20.3,30.20,ENE,69,0.0,0.0,53,0.00,,,0.00,Wunderground v.1.15,2013-04-03 06:05:00,
2013-04-03 01:15:00,35.5,20.5,30.20,ESE,103,0.0,0.0,54,0.00,,,0.00,Wunderground v.1.15,2013-04-03 06:15:00,
2013-04-03 01:25:00,35.3,20.3,30.20,East,93,0.0,0.0,54,0.00,,,0.00,Wunderground v.1.15,2013-04-03 06:25:00,
2013-04-03 01:30:00,35.5,20.5,30.20,ESE,113,0.0,0.0,54,0.00,,,0.00,Wunderground v.1.15,2013-04-03 06:30:00,
2013-04-03 01:40:00,35.6,20.6,30.22,East,88,0.0,0.0,54,0.00,,,0.00,Wunderground v.1.15,2013-04-03 06:40:00,
2013-04-03 01:50:00,35.5,20.9,30.21,East,90,0.0,0.0,55,0.00,,,0.00,Wunderground v.1.15,2013-04-03 06:50:00,
2013-04-03 02:00:00,35.2,21.1,30.21,East,86,0.0,0.0,56,0.00,,,0.00,Wunderground v.1.15,2013-04-03 07:00:00,
2013-04-03 02:10:00,34.7,20.6,30.21,East,85,0.0,0.0,56,0.00,,,0.00,Wunderground v.1.15,2013-04-03 07:10:00,
2013-04-03 02:20:00,34.4,20.7,30.21,East,80,0.0,0.0,57,0.00,,,0.00,Wunderground v.1.15,2013-04-03 07:20:00,
2013-04-03 02:25:00,34.3,20.6,30.21,East,88,0.0,0.0,57,0.00,,,0.00,Wunderground v.1.15,2013-04-03 07:25:00,
2013-04-03 02:35:00,34.3,20.6,30.21,East,83,0.0,0.0,57,0.00,,,0.00,Wunderground v.1.15,2013-04-03 07:35:00,
2013-04-03 02:45:00,34.3,20.6,30.21,East,88,0.0,0.0,57,0.00,,,0.00,Wunderground v.1.15,2013-04-03 07:45:00,
2013-04-03 02:55:00,34.4,20.7,30.21,East,97,0.0,0.0,57,0.00,,,0.00,Wunderground v.1.15,2013-04-03 07:55:00,
2013-04-03 03:05:00,34.6,20.9,30.22,East,93,0.0,0.0,57,0.00,,,0.00,Wunderground v.1.15,2013-04-03 08:05:00,
2013-04-03 03:10:00,34.6,20.9,30.22,East,96,0.0,0.0,57,0.00,,,0.00,Wunderground v.1.15,2013-04-03 08:10:00,
2013-04-03 03:20:00,34.4,20.7,30.23,ESE,102,0.0,0.0,57,0.00,,,0.00,Wunderground v.1.15,2013-04-03 08:20:00,
2013-04-03 03:30:00,34.3,21.0,30.23,East,95,0.0,0.0,58,0.00,,,0.00,Wunderground v.1.15,2013-04-03 08:30:00,
2013-04-03 03:35:00,34.1,20.9,30.22,ESE,106,0.0,0.0,58,0.00,,,0.00,Wunderground v.1.15,2013-04-03 08:35:00,
2013-04-03 03:45:00,33.8,21.0,30.22,East,93,0.0,0.0,59,0.00,,,0.00,Wunderground v.1.15,2013-04-03 08:45:00,
2013-04-03 03:55:00,33.7,20.9,30.22,ESE,109,0.0,0.0,59,0.00,,,0.00,Wunderground v.1.15,2013-04-03 08:55:00,
2013-04-03 04:05:00,33.5,20.7,30.23,East,93,0.0,0.0,59,0.00,,,0.00,Wunderground v.1.15,2013-04-03 09:05:00,
2013-04-03 04:10:00,33.5,20.7,30.23,East,90,0.0,0.0,59,0.00,,,0.00,Wunderground v.1.15,2013-04-03 09:10:00,
2013-04-03 04:20:00,33.4,21.0,30.23,East,79,0.0,0.0,60,0.00,,,0.00,Wunderground v.1.15,2013-04-03 09:20:00,
2013-04-03 04:30:00,33.2,20.8,30.23,East,88,0.0,0.0,60,0.00,,,0.00,Wunderground v.1.15,2013-04-03 09:30:00,
2013-04-03 04:40:00,33.1,21.1,30.23,East,90,0.0,0.0,61,0.00,,,0.00,Wunderground v.1.15,2013-04-03 09:40:00,
2013-04-03 04:45:00,32.9,20.9,30.23,East,99,0.0,0.0,61,0.00,,,0.00,Wunderground v.1.15,2013-04-03 09:45:00,
2013-04-03 04:55:00,32.9,20.9,30.24,SE,130,0.0,0.0,61,0.00,,,0.00,Wunderground v.1.15,2013-04-03 09:55:00,
2013-04-03 05:05:00,32.7,21.1,30.24,SE,126,0.0,0.0,62,0.00,,,0.00,Wunderground v.1.15,2013-04-03 10:05:00,
2013-04-03 05:15:00,32.5,20.9,30.24,ESE,110,0.0,0.0,62,0.00,,,0.00,Wunderground v.1.15,2013-04-03 10:15:00,
2013-04-03 05:25:00,32.4,20.8,30.24,East,95,0.0,0.0,62,0.00,,,0.00,Wunderground v.1.15,2013-04-03 10:25:00,
2013-04-03 05:35:00,32.4,20.8,30.25,East,96,0.0,0.0,62,0.00,,,0.00,Wunderground v.1.15,2013-04-03 10:35:00,
2013-04-03 05:40:00,32.4,21.2,30.25,East,97,0.0,0.0,63,0.00,,,0.00,Wunderground v.1.15,2013-04-03 10:40:00,
2013-04-03 05:50:00,32.2,21.0,30.25,East,97,0.0,0.0,63,0.00,,,0.00,Wunderground v.1.15,2013-04-03 10:50:00,
2013-04-03 06:00:00,32.1,20.9,30.25,East,99,0.0,0.0,63,0.00,,,0.00,Wunderground v.1.15,2013-04-03 11:00:00,
2013-04-03 06:10:00,32.1,21.3,30.25,East,96,0.0,0.0,64,0.00,,,0.00,Wunderground v.1.15,2013-04-03 11:10:00,
2013-04-03 06:20:00,31.9,21.1,30.26,East,93,0.0,0.0,64,0.00,,,0.00,Wunderground v.1.15,2013-04-03 11:20:00,
2013-04-03 06:25:00,31.9,21.1,30.26,East,90,0.0,0.0,64,0.00,,,0.00,Wunderground v.1.15,2013-04-03 11:25:00,
2013-04-03 06:35:00,31.9,21.1,30.26,East,88,0.0,0.0,64,0.00,,,0.00,Wunderground v.1.15,2013-04-03 11:35:00,
2013-04-03 06:45:00,31.8,21.0,30.26,East,93,0.0,0.0,64,0.00,,,0.00,Wunderground v.1.15,2013-04-03 11:45:00,
2013-04-03 06:55:00,31.6,21.2,30.25,ESE,103,0.0,0.0,65,0.00,,,0.00,Wunderground v.1.15,2013-04-03 11:55:00,
2013-04-03 07:00:00,31.6,21.2,30.25,East,92,0.0,0.0,65,0.00,,,0.00,Wunderground v.1.15,2013-04-03 12:00:00,
2013-04-03 07:10:00,31.6,21.2,30.26,East,100,0.0,0.0,65,0.00,,,0.00,Wunderground v.1.15,2013-04-03 12:10:00,
2013-04-03 07:20:00,31.6,21.2,30.27,East,99,0.0,0.0,65,0.00,,,0.00,Wunderground v.1.15,2013-04-03 12:20:00,
2013-04-03 07:30:00,31.8,21.4,30.27,East,93,0.0,0.0,65,0.00,,,0.00,Wunderground v.1.15,2013-04-03 12:30:00,
2013-04-03 07:40:00,32.1,21.7,30.27,East,100,0.0,0.0,65,0.00,,,0.00,Wunderground v.1.15,2013-04-03 12:40:00,
2013-04-03 07:45:00,32.2,21.7,30.27,ESE,109,0.0,0.0,65,0.00,,,0.00,Wunderground v.1.15,2013-04-03 12:45:00,
2013-04-03 07:55:00,32.4,21.9,30.27,ESE,112,0.0,0.0,65,0.00,,,0.00,Wunderground v.1.15,2013-04-03 12:55:00,
2013-04-03 08:05:00,32.8,22.0,30.28,East,92,0.0,0.0,64,0.00,,,0.00,Wunderground v.1.15,2013-04-03 13:05:00,
2013-04-03 08:15:00,33.1,22.2,30.28,East,90,0.0,0.0,64,0.00,,,0.00,Wunderground v.1.15,2013-04-03 13:15:00,
2013-04-03 08:25:00,33.7,22.4,30.28,ESE,109,0.0,0.0,63,0.00,,,0.00,Wunderground v.1.15,2013-04-03 13:25:00,
2013-04-03 08:30:00,34.0,22.7,30.28,ESE,112,0.0,0.0,63,0.00,,,0.00,Wunderground v.1.15,2013-04-03 13:30:00,
2013-04-03 08:40:00,34.7,23.0,30.28,East,97,0.0,0.0,62,0.00,,,0.00,Wunderground v.1.15,2013-04-03 13:40:00,
2013-04-03 08:50:00,35.6,23.1,30.28,ESE,110,0.0,0.0,60,0.00,,,0.00,Wunderground v.1.15,2013-04-03 13:50:00,
2013-04-03 09:00:00,36.2,22.8,30.28,SE,128,0.0,0.0,58,0.00,,,0.00,Wunderground v.1.15,2013-04-03 14:00:00,
2013-04-03 09:10:00,36.9,23.1,30.27,ESE,110,0.0,0.0,57,0.00,,,0.00,Wunderground v.1.15,2013-04-03 14:10:00,
2013-04-03 09:15:00,37.5,23.2,30.27,East,100,0.0,0.0,56,0.00,,,0.00,Wunderground v.1.15,2013-04-03 14:15:00,
2013-04-03 09:25:00,38.0,22.4,30.28,SE,127,0.0,0.0,53,0.00,,,0.00,Wunderground v.1.15,2013-04-03 14:25:00,
2013-04-03 09:35:00,39.1,22.9,30.27,ESE,121,0.0,0.0,52,0.00,,,0.00,Wunderground v.1.15,2013-04-03 14:35:00,
2013-04-03 09:40:00,39.3,22.2,30.27,ESE,121,0.0,0.0,50,0.00,,,0.00,Wunderground v.1.15,2013-04-03 14:40:00,
2013-04-03 09:50:00,40.2,23.0,30.27,East,93,0.0,0.0,50,0.00,,,0.00,Wunderground v.1.15,2013-04-03 14:50:00,
2013-04-03 10:00:00,41.1,22.9,30.27,ESE,107,0.0,0.0,48,0.00,,,0.00,Wunderground v.1.15,2013-04-03 15:00:00,
2013-04-03 10:10:00,41.6,23.3,30.28,ESE,114,0.0,0.0,48,0.00,,,0.00,Wunderground v.1.15,2013-04-03 15:10:00,
2013-04-03 10:15:00,41.8,22.0,30.28,SE,133,0.0,0.0,45,0.00,,,0.00,Wunderground v.1.15,2013-04-03 15:15:00,
2013-04-03 10:25:00,42.8,22.9,30.29,SE,131,0.0,0.0,45,0.00,,,0.00,Wunderground v.1.15,2013-04-03 15:25:00,
2013-04-03 10:35:00,43.2,22.7,30.29,SE,137,0.0,0.0,44,0.00,,,0.00,Wunderground v.1.15,2013-04-03 15:35:00,
2013-04-03 10:45:00,43.6,21.4,30.29,SSE,155,0.0,0.0,41,0.00,,,0.00,Wunderground v.1.15,2013-04-03 15:45:00,
2013-04-03 10:55:00,44.1,21.9,30.28,ESE,109,0.0,0.0,41,0.00,,,0.00,Wunderground v.1.15,2013-04-03 15:55:00,
2013-04-03 11:00:00,43.9,21.1,30.28,SSE,155,0.0,0.0,40,0.00,,,0.00,Wunderground v.1.15,2013-04-03 16:00:00,
2013-04-03 11:10:00,44.8,21.3,30.28,SE,136,0.0,0.0,39,0.00,,,0.00,Wunderground v.1.15,2013-04-03 16:10:00,
2013-04-03 11:20:00,45.1,21.0,30.27,East,95,0.0,0.0,38,0.00,,,0.00,Wunderground v.1.15,2013-04-03 16:20:00,
2013-04-03 11:30:00,45.5,21.9,30.27,ESE,119,0.0,0.0,39,0.00,,,0.00,Wunderground v.1.15,2013-04-03 16:30:00,
2013-04-03 11:40:00,46.1,21.2,30.27,SE,145,0.0,0.0,37,0.00,,,0.00,Wunderground v.1.15,2013-04-03 16:40:00,
2013-04-03 11:50:00,47.1,22.8,30.26,SE,137,0.0,0.0,38,0.00,,,0.00,Wunderground v.1.15,2013-04-03 16:50:00,
2013-04-03 12:00:00,47.9,22.2,30.26,East,97,0.0,0.0,36,0.00,,,0.00,Wunderground v.1.15,2013-04-03 17:00:00,
2013-04-03 12:05:00,48.0,21.6,30.26,SE,133,0.0,0.0,35,0.00,,,0.00,Wunderground v.1.15,2013-04-03 17:05:00,
2013-04-03 12:15:00,47.7,22.0,30.26,ESE,110,0.0,0.0,36,0.00,,,0.00,Wunderground v.1.15,2013-04-03 17:15:00,
2013-04-03 12:25:00,47.7,22.7,30.25,SE,134,0.0,0.0,37,0.00,,,0.00,Wunderground v.1.15,2013-04-03 17:25:00,
2013-04-03 12:35:00,48.3,22.5,30.25,ESE,110,0.0,0.0,36,0.00,,,0.00,Wunderground v.1.15,2013-04-03 17:35:00,
2013-04-03 12:45:00,48.8,21.6,30.25,SE,124,0.0,0.0,34,0.00,,,0.00,Wunderground v.1.15,2013-04-03 17:45:00,
2013-04-03 12:55:00,49.5,22.9,30.25,East,95,0.0,0.0,35,0.00,,,0.00,Wunderground v.1.15,2013-04-03 17:55:00,
2013-04-03 13:00:00,50.1,22.1,30.25,SE,137,0.0,0.0,33,0.00,,,0.00,Wunderground v.1.15,2013-04-03 18:00:00,
2013-04-03 13:10:00,50.1,21.3,30.24,ESE,113,0.0,0.0,32,0.00,,,0.00,Wunderground v.1.15,2013-04-03 18:10:00,
2013-04-03 13:20:00,50.4,23.7,30.23,NE,37,0.0,0.0,35,0.00,,,0.00,Wunderground v.1.15,2013-04-03 18:20:00,
2013-04-03 13:25:00,50.4,22.3,30.23,South,182,0.0,0.0,33,0.00,,,0.00,Wunderground v.1.15,2013-04-03 18:25:00,
2013-04-03 13:30:00,49.9,22.6,30.23,East,90,0.0,0.0,34,0.00,,,0.00,Wunderground v.1.15,2013-04-03 18:30:00,
2013-04-03 13:40:00,50.5,22.4,30.23,SE,143,0.0,0.0,33,0.00,,,0.00,Wunderground v.1.15,2013-04-03 18:40:00,
2013-04-03 13:50:00,50.1,21.3,30.23,SE,133,0.0,0.0,32,0.00,,,0.00,Wunderground v.1.15,2013-04-03 18:50:00,
2013-04-03 13:55:00,49.5,22.3,30.23,East,82,0.0,0.0,34,0.00,,,0.00,Wunderground v.1.15,2013-04-03 18:55:00,
2013-04-03 14:05:00,49.6,21.6,30.23,East,95,0.0,0.0,33,0.00,,,0.00,Wunderground v.1.15,2013-04-03 19:05:00,
2013-04-03 14:10:00,49.5,21.5,30.23,East,93,0.0,0.0,33,0.00,,,0.00,Wunderground v.1.15,2013-04-03 19:10:00,
2013-04-03 14:20:00,49.8,21.8,30.23,South,172,0.0,0.0,33,0.00,,,0.00,Wunderground v.1.15,2013-04-03 19:20:00,
2013-04-03 14:30:00,49.5,21.5,30.23,ESE,113,0.0,0.0,33,0.00,,,0.00,Wunderground v.1.15,2013-04-03 19:30:00,
2013-04-03 14:35:00,49.8,21.8,30.22,ESE,104,0.0,0.0,33,0.00,,,0.00,Wunderground v.1.15,2013-04-03 19:35:00,
2013-04-03 14:45:00,50.2,22.2,30.22,East,93,0.0,0.0,33,0.00,,,0.00,Wunderground v.1.15,2013-04-03 19:45:00,
2013-04-03 14:50:00,50.7,22.6,30.21,East,79,0.0,0.0,33,0.00,,,0.00,Wunderground v.1.15,2013-04-03 19:50:00,
2013-04-03 15:00:00,50.8,22.0,30.21,ESE,116,0.0,0.0,32,0.00,,,0.00,Wunderground v.1.15,2013-04-03 20:00:00,
2013-04-03 15:05:00,50.4,21.6,30.20,East,97,0.0,0.0,32,0.00,,,0.00,Wunderground v.1.15,2013-04-03 20:05:00,
2013-04-03 15:15:00,51.0,22.9,30.20,East,83,0.0,0.0,33,0.00,,,0.00,Wunderground v.1.15,2013-04-03 20:15:00,
2013-04-03 15:25:00,51.3,22.4,30.20,East,97,0.0,0.0,32,0.00,,,0.00,Wunderground v.1.15,2013-04-03 20:25:00,
2013-04-03 15:30:00,50.8,22.7,30.20,East,88,0.0,0.0,33,0.00,,,0.00,Wunderground v.1.15,2013-04-03 20:30:00,
2013-04-03 15:40:00,51.0,22.1,30.20,East,86,0.0,0.0,32,0.00,,,0.00,Wunderground v.1.15,2013-04-03 20:40:00,
2013-04-03 15:45:00,50.8,22.7,30.20,East,90,0.0,0.0,33,0.00,,,0.00,Wunderground v.1.15,2013-04-03 20:45:00,
2013-04-03 15:55:00,50.7,23.3,30.19,ESE,121,0.0,0.0,34,0.00,,,0.00,Wunderground v.1.15,2013-04-03 20:55:00,
2013-04-03 16:05:00,50.8,22.7,30.18,ESE,103,0.0,0.0,33,0.00,,,0.00,Wunderground v.1.15,2013-04-03 21:05:00,
2013-04-03 16:10:00,50.8,22.7,30.18,ESE,110,0.0,0.0,33,0.00,,,0.00,Wunderground v.1.15,2013-04-03 21:10:00,
2013-04-03 16:20:00,50.2,22.9,30.18,ESE,117,0.0,0.0,34,0.00,,,0.00,Wunderground v.1.15,2013-04-03 21:20:00,
2013-04-03 16:25:00,50.2,22.9,30.18,East,100,0.0,0.0,34,0.00,,,0.00,Wunderground v.1.15,2013-04-03 21:25:00,
2013-04-03 16:35:00,50.4,23.1,30.17,ESE,107,0.0,0.0,34,0.00,,,0.00,Wunderground v.1.15,2013-04-03 21:35:00,
2013-04-03 16:45:00,50.2,22.9,30.17,ESE,119,0.0,0.0,34,0.00,,,0.00,Wunderground v.1.15,2013-04-03 21:45:00,
2013-04-03 16:50:00,50.5,23.8,30.17,East,96,0.0,0.0,35,0.00,,,0.00,Wunderground v.1.15,2013-04-03 21:50:00,
2013-04-03 17:00:00,50.7,23.3,30.17,ENE,76,0.0,0.0,34,0.00,,,0.00,Wunderground v.1.15,2013-04-03 22:00:00,
2013-04-03 17:10:00,50.4,23.7,30.16,East,82,0.0,0.0,35,0.00,,,0.00,Wunderground v.1.15,2013-04-03 22:10:00,
2013-04-03 17:15:00,50.5,23.1,30.16,East,85,0.0,0.0,34,0.00,,,0.00,Wunderground v.1.15,2013-04-03 22:15:00,
2013-04-03 17:25:00,50.4,23.1,30.17,East,97,0.0,0.0,34,0.00,,,0.00,Wunderground v.1.15,2013-04-03 22:25:00,
2013-04-03 17:35:00,50.4,23.7,30.16,East,97,0.0,0.0,35,0.00,,,0.00,Wunderground v.1.15,2013-04-03 22:35:00,
2013-04-03 17:40:00,50.4,23.1,30.16,ESE,104,0.0,0.0,34,0.00,,,0.00,Wunderground v.1.15,2013-04-03 22:40:00,
2013-04-03 17:45:00,50.4,23.7,30.16,ESE,106,0.0,0.0,35,0.00,,,0.00,Wunderground v.1.15,2013-04-03 22:45:00,
2013-04-03 17:55:00,50.2,22.9,30.16,East,86,0.0,0.0,34,0.00,,,0.00,Wunderground v.1.15,2013-04-03 22:55:00,
2013-04-03 18:00:00,50.2,23.6,30.16,East,86,0.0,0.0,35,0.00,,,0.00,Wunderground v.1.15,2013-04-03 23:00:00,
2013-04-03 18:10:00,50.1,23.5,30.16,East,80,0.0,0.0,35,0.00,,,0.00,Wunderground v.1.15,2013-04-03 23:10:00,
2013-04-03 18:15:00,50.1,23.5,30.16,East,93,0.0,0.0,35,0.00,,,0.00,Wunderground v.1.15,2013-04-03 23:15:00,
2013-04-03 18:25:00,49.9,23.3,30.16,ESE,102,0.0,0.0,35,0.00,,,0.00,Wunderground v.1.15,2013-04-03 23:25:00,
2013-04-03 18:30:00,49.9,24.0,30.16,East,95,0.0,0.0,36,0.00,,,0.00,Wunderground v.1.15,2013-04-03 23:30:00,
2013-04-03 18:40:00,49.8,23.9,30.16,East,90,0.0,0.0,36,0.00,,,0.00,Wunderground v.1.15,2013-04-03 23:40:00,
2013-04-03 18:45:00,49.8,24.5,30.16,East,89,0.0,0.0,37,0.00,,,0.00,Wunderground v.1.15,2013-04-03 23:45:00,
2013-04-03 18:50:00,49.6,23.7,30.15,East,88,0.0,0.0,36,0.00,,,0.00,Wunderground v.1.15,2013-04-03 23:50:00,
2013-04-03 19:00:00,49.4,24.2,30.15,ESE,117,0.0,0.0,37,0.00,,,0.00,Wunderground v.1.15,2013-04-04 00:00:00,
2013-04-03 19:10:00,49.2,24.0,30.15,East,89,0.0,0.0,37,0.00,,,0.00,Wunderground v.1.15,2013-04-04 00:10:00,
2013-04-03 19:15:00,49.1,24.6,30.15,East,89,0.0,0.0,38,0.00,,,0.00,Wunderground v.1.15,2013-04-04 00:15:00,
2013-04-03 19:25:00,48.8,24.3,30.15,East,96,0.0,0.0,38,0.00,,,0.00,Wunderground v.1.15,2013-04-04 00:25:00,
2013-04-03 19:35:00,48.5,24.0,30.15,East,93,0.0,0.0,38,0.00,,,0.00,Wunderground v.1.15,2013-04-04 00:35:00,
2013-04-03 19:45:00,48.2,24.4,30.15,East,93,0.0,0.0,39,0.00,,,0.00,Wunderground v.1.15,2013-04-04 00:45:00,
2013-04-03 19:55:00,47.9,24.7,30.15,East,93,0.0,0.0,40,0.00,,,0.00,Wunderground v.1.15,2013-04-04 00:55:00,
2013-04-03 20:00:00,47.9,24.7,30.15,East,93,0.0,0.0,40,0.00,,,0.00,Wunderground v.1.15,2013-04-04 01:00:00,
2013-04-03 20:10:00,47.6,25.0,30.15,East,93,0.0,0.0,41,0.00,,,0.00,Wunderground v.1.15,2013-04-04 01:10:00,
2013-04-03 20:20:00,47.3,25.3,30.15,East,93,0.0,0.0,42,0.00,,,0.00,Wunderground v.1.15,2013-04-04 01:20:00,
2013-04-03 20:25:00,47.1,25.2,30.15,East,93,0.0,0.0,42,0.00,,,0.00,Wunderground v.1.15,2013-04-04 01:25:00,
2013-04-03 20:35:00,46.5,25.2,30.15,East,93,0.0,0.0,43,0.00,,,0.00,Wunderground v.1.15,2013-04-04 01:35:00,
2013-04-03 20:45:00,45.7,25.0,30.15,East,93,0.0,0.0,44,0.00,,,0.00,Wunderground v.1.15,2013-04-04 01:45:00,
2013-04-03 20:55:00,45.2,25.1,30.15,East,93,0.0,0.0,45,0.00,,,0.00,Wunderground v.1.15,2013-04-04 01:55:00,
2013-04-03 21:00:00,44.9,24.8,30.15,East,93,0.0,0.0,45,0.00,,,0.00,Wunderground v.1.15,2013-04-04 02:00:00,
2013-04-03 21:10:00,44.6,24.5,30.16,East,93,0.0,0.0,45,0.00,,,0.00,Wunderground v.1.15,2013-04-04 02:10:00,
2013-04-03 21:20:00,44.3,24.3,30.16,East,93,0.0,0.0,45,0.00,,,0.00,Wunderground v.1.15,2013-04-04 02:20:00,
2013-04-03 21:25:00,44.1,24.6,30.16,East,93,0.0,0.0,46,0.00,,,0.00,Wunderground v.1.15,2013-04-04 02:25:00,
2013-04-03 21:35:00,44.1,24.6,30.16,East,93,0.0,0.0,46,0.00,,,0.00,Wunderground v.1.15,2013-04-04 02:35:00,
2013-04-03 21:45:00,44.1,24.6,30.16,East,93,0.0,0.0,46,0.00,,,0.00,Wunderground v.1.15,2013-04-04 02:45:00,
2013-04-03 21:55:00,43.8,24.9,30.16,East,93,0.0,0.0,47,0.00,,,0.00,Wunderground v.1.15,2013-04-04 02:55:00,
2013-04-03 22:00:00,43.6,24.7,30.16,East,93,0.0,0.0,47,0.00,,,0.00,Wunderground v.1.15,2013-04-04 03:00:00,
2013-04-03 22:10:00,43.2,24.8,30.17,East,93,0.0,0.0,48,0.00,,,0.00,Wunderground v.1.15,2013-04-04 03:10:00,
2013-04-03 22:15:00,43.1,24.7,30.17,East,93,0.0,0.0,48,0.00,,,0.00,Wunderground v.1.15,2013-04-04 03:15:00,
2013-04-03 22:25:00,42.9,25.0,30.17,East,93,0.0,0.0,49,0.00,,,0.00,Wunderground v.1.15,2013-04-04 03:25:00,
2013-04-03 22:35:00,42.6,24.8,30.16,East,93,0.0,0.0,49,0.00,,,0.00,Wunderground v.1.15,2013-04-04 03:35:00,
2013-04-03 22:45:00,42.5,24.7,30.16,East,93,0.0,0.0,49,0.00,,,0.00,Wunderground v.1.15,2013-04-04 03:45:00,
2013-04-03 22:55:00,42.2,24.4,30.16,East,93,0.0,0.0,49,0.00,,,0.00,Wunderground v.1.15,2013-04-04 03:55:00,
2013-04-03 23:00:00,41.9,24.1,30.16,East,93,0.0,0.0,49,0.00,,,0.00,Wunderground v.1.15,2013-04-04 04:00:00,
2013-04-03 23:05:00,41.5,24.2,30.16,East,93,0.0,0.0,50,0.00,,,0.00,Wunderground v.1.15,2013-04-04 04:05:00,
2013-04-03 23:10:00,41.3,24.0,30.16,East,93,0.0,0.0,50,0.00,,,0.00,Wunderground v.1.15,2013-04-04 04:10:00,
2013-04-03 23:15:00,41.3,24.5,30.16,East,93,0.0,0.0,51,0.00,,,0.00,Wunderground v.1.15,2013-04-04 04:15:00,
2013-04-03 23:20:00,41.3,24.5,30.16,East,93,0.0,0.0,51,0.00,,,0.00,Wunderground v.1.15,2013-04-04 04:20:00,
2013-04-03 23:30:00,41.3,24.0,30.16,East,93,0.0,0.0,50,0.00,,,0.00,Wunderground v.1.15,2013-04-04 04:30:00,
2013-04-03 23:40:00,41.3,24.0,30.15,East,93,0.0,0.0,50,0.00,,,0.00,Wunderground v.1.15,2013-04-04 04:40:00,
2013-04-03 23:45:00,41.3,24.0,30.15,East,93,0.0,0.0,50,0.00,,,0.00,Wunderground v.1.15,2013-04-04 04:45:00,
2013-04-03 23:55:00,41.3,24.0,30.15,East,93,0.0,0.0,50,0.00,,,0.00,Wunderground v.1.15,2013-04-04 04:55:00,